• In Österreich
  • Länderverzeichnis
  • Für 7 Tage
  • Wassertemperatur
  • Satellitenkarten
  • Wetterkarte
  • News
  • Widgets
  • user-avatar
    Anmelden

    Stündliche Wetter Boma

    Heute, 22 September, Samstag

    Zeit Temperatur Niederschläge Wind Luftdruck Luftfeuchtigkeit
    00:00 +21°C° 1.4 mm 0 m/S 699 mmHg 95%
    01:00 +21°C° 1.4 mm 0 m/S 699 mmHg 96%
    02:00 +22°C° 0.8 mm 1 m/S 699 mmHg 96%
    03:00 +22°C° 0.8 mm 1 m/S 699 mmHg 97%
    04:00 +22°C° 0.8 mm 1 m/S 699 mmHg 98%
    05:00 +22°C° 0.1 mm 1 m/S 699 mmHg 98%
    06:00 +20°C° 0.1 mm 0 m/S 700 mmHg 98%
    07:00 +21°C° 0.1 mm 0 m/S 700 mmHg 98%
    08:00 +24°C° 0.6 mm 1 m/S 700 mmHg 94%
    09:00 +25°C° 0.6 mm 1 m/S 700 mmHg 91%
    10:00 +27°C° 0.6 mm 1 m/S 701 mmHg 87%
    11:00 +28°C° 1 mm 1 m/S 700 mmHg 80%
    12:00 +27°C° 1 mm 0 m/S 700 mmHg 74%
    13:00 +29°C° 1 mm 0 m/S 700 mmHg 67%
    14:00 +29°C° 0.2 mm 0 m/S 699 mmHg 63%
    15:00 +31°C° 0.2 mm 1 m/S 699 mmHg 60%
    16:00 +31°C° 0.2 mm 1 m/S 698 mmHg 56%
    17:00 +29°C° 0.9 mm 1 m/S 698 mmHg 68%
    18:00 +26°C° 0.9 mm 1 m/S 698 mmHg 81%
    19:00 +22°C° 0.9 mm 0 m/S 698 mmHg 93%
    20:00 +22°C° 0.5 mm 0 m/S 699 mmHg 94%
    21:00 +21°C° 0.5 mm 0 m/S 699 mmHg 95%
    22:00 +23°C° 0.5 mm 1 m/S 700 mmHg 96%
    23:00 +21°C° 0.2 mm 0 m/S 700 mmHg 97%

    Morgen, 23 September, Sonntag

    Zeit Temperatur Niederschläge Wind Luftdruck Luftfeuchtigkeit
    00:00 +21°C° 0.2 mm 0 m/S 699 mmHg 97%
    01:00 +20°C° 0.2 mm 0 m/S 699 mmHg 98%
    02:00 +20°C° 1.1 mm 0 m/S 699 mmHg 98%
    03:00 +20°C° 1.1 mm 0 m/S 699 mmHg 98%
    04:00 +20°C° 1.1 mm 0 m/S 699 mmHg 99%
    05:00 +20°C° 0.1 mm 0 m/S 699 mmHg 98%
    06:00 +20°C° 0.1 mm 0 m/S 700 mmHg 98%
    07:00 +21°C° 0.1 mm 0 m/S 700 mmHg 98%
    08:00 +24°C° 0 mm 1 m/S 701 mmHg 91%
    09:00 +26°C° 0 mm 1 m/S 701 mmHg 85%
    10:00 +27°C° 0 mm 1 m/S 701 mmHg 78%
    11:00 +29°C° 0.4 mm 1 m/S 701 mmHg 73%
    12:00 +30°C° 0.4 mm 1 m/S 700 mmHg 67%
    13:00 +31°C° 0.4 mm 1 m/S 700 mmHg 62%
    14:00 +30°C° 0.9 mm 1 m/S 699 mmHg 67%
    15:00 +29°C° 0.9 mm 1 m/S 699 mmHg 72%
    16:00 +26°C° 0.9 mm 0 m/S 699 mmHg 77%
    17:00 +25°C° 0.3 mm 0 m/S 699 mmHg 82%
    18:00 +23°C° 0.3 mm 0 m/S 699 mmHg 87%
    19:00 +22°C° 0.3 mm 0 m/S 700 mmHg 92%
    20:00 +22°C° 0 mm 0 m/S 700 mmHg 92%
    21:00 +21°C° 0 mm 0 m/S 700 mmHg 93%
    22:00 +21°C° 0 mm 0 m/S 700 mmHg 93%
    23:00 +21°C° 0.1 mm 0 m/S 700 mmHg 94%

    übermorgen, 24 September, Montag

    Zeit Temperatur Niederschläge Wind Luftdruck Luftfeuchtigkeit
    00:00 +23°C° 0.1 mm 1 m/S 700 mmHg 95%
    01:00 +22°C° 0.1 mm 1 m/S 699 mmHg 95%
    02:00 +22°C° 0.1 mm 1 m/S 699 mmHg 96%
    03:00 +22°C° 0.1 mm 1 m/S 699 mmHg 97%
    04:00 +22°C° 0.1 mm 1 m/S 699 mmHg 98%
    05:00 +22°C° 0 mm 1 m/S 700 mmHg 97%
    06:00 +20°C° 0 mm 0 m/S 700 mmHg 97%
    07:00 +20°C° 0 mm 0 m/S 700 mmHg 96%
    08:00 +22°C° 0 mm 0 m/S 701 mmHg 88%
    09:00 +24°C° 0 mm 0 m/S 701 mmHg 80%
    10:00 +26°C° 0 mm 0 m/S 702 mmHg 72%
    11:00 +27°C° 0 mm 0 m/S 701 mmHg 66%
    12:00 +29°C° 0 mm 0 m/S 701 mmHg 59%
    13:00 +30°C° 0 mm 0 m/S 700 mmHg 52%
    14:00 +31°C° 0 mm 1 m/S 700 mmHg 54%
    15:00 +31°C° 0 mm 1 m/S 699 mmHg 55%
    16:00 +30°C° 0 mm 1 m/S 698 mmHg 57%
    17:00 +28°C° 0 mm 1 m/S 698 mmHg 66%
    18:00 +26°C° 0 mm 1 m/S 699 mmHg 75%
    19:00 +24°C° 0 mm 1 m/S 699 mmHg 84%
    20:00 +23°C° 0.3 mm 1 m/S 699 mmHg 87%
    21:00 +21°C° 0.3 mm 0 m/S 700 mmHg 90%
    22:00 +20°C° 0.3 mm 0 m/S 700 mmHg 93%
    23:00 +20°C° 0.2 mm 0 m/S 700 mmHg 94%

    25 September, Dienstag

    Zeit Temperatur Niederschläge Wind Luftdruck Luftfeuchtigkeit
    00:00 +19°C° 0.2 mm 0 m/S 699 mmHg 95%
    01:00 +21°C° 0.2 mm 1 m/S 699 mmHg 96%
    02:00 +21°C° 0.6 mm 1 m/S 699 mmHg 96%
    03:00 +19°C° 0.6 mm 0 m/S 699 mmHg 97%
    04:00 +19°C° 0.6 mm 0 m/S 699 mmHg 97%
    05:00 +19°C° 0 mm 0 m/S 699 mmHg 97%
    06:00 +19°C° 0 mm 0 m/S 700 mmHg 96%
    07:00 +20°C° 0 mm 0 m/S 700 mmHg 96%
    08:00 +21°C° 0.1 mm 0 m/S 701 mmHg 91%
    09:00 +23°C° 0.1 mm 0 m/S 702 mmHg 86%
    10:00 +24°C° 0.1 mm 0 m/S 702 mmHg 82%
    11:00 +25°C° 0.1 mm 0 m/S 701 mmHg 78%
    12:00 +27°C° 0.1 mm 1 m/S 701 mmHg 74%
    13:00 +28°C° 0.1 mm 1 m/S 700 mmHg 70%
    14:00 +28°C° 0.1 mm 1 m/S 699 mmHg 69%
    15:00 +28°C° 0.1 mm 1 m/S 699 mmHg 68%
    16:00 +28°C° 0.1 mm 1 m/S 699 mmHg 68%
    17:00 +27°C° 0.4 mm 1 m/S 699 mmHg 75%
    18:00 +23°C° 0.4 mm 0 m/S 699 mmHg 83%
    19:00 +22°C° 0.4 mm 0 m/S 700 mmHg 90%
    20:00 +21°C° 0.6 mm 0 m/S 700 mmHg 92%
    21:00 +21°C° 0.6 mm 0 m/S 700 mmHg 93%
    22:00 +20°C° 0.6 mm 0 m/S 701 mmHg 95%
    23:00 +20°C° 0.1 mm 0 m/S 700 mmHg 96%

    26 September, Mittwoch

    Zeit Temperatur Niederschläge Wind Luftdruck Luftfeuchtigkeit
    00:00 +20°C° 0.1 mm 0 m/S 700 mmHg 96%
    01:00 +20°C° 0.1 mm 0 m/S 699 mmHg 97%
    02:00 +20°C° 0.1 mm 0 m/S 699 mmHg 98%
    03:00 +22°C° 0.1 mm 1 m/S 699 mmHg 98%
    04:00 +21°C° 0.1 mm 1 m/S 699 mmHg 99%
    05:00 +22°C° 0 mm 1 m/S 699 mmHg 98%
    06:00 +20°C° 0 mm 0 m/S 700 mmHg 98%
    07:00 +20°C° 0 mm 0 m/S 700 mmHg 97%
    08:00 +22°C° 0 mm 0 m/S 701 mmHg 88%
    09:00 +24°C° 0 mm 0 m/S 701 mmHg 79%
    10:00 +28°C° 0 mm 1 m/S 701 mmHg 69%
    11:00 +28°C° 0.1 mm 0 m/S 701 mmHg 62%
    12:00 +30°C° 0.1 mm 0 m/S 700 mmHg 54%
    13:00 +32°C° 0.1 mm 0 m/S 700 mmHg 47%
    14:00 +31°C° 0.3 mm 0 m/S 699 mmHg 51%
    15:00 +32°C° 0.3 mm 1 m/S 699 mmHg 54%
    16:00 +31°C° 0.3 mm 1 m/S 698 mmHg 58%
    17:00 +29°C° 0.6 mm 1 m/S 698 mmHg 69%
    18:00 +26°C° 0.6 mm 1 m/S 699 mmHg 80%
    19:00 +22°C° 0.6 mm 0 m/S 699 mmHg 91%
    20:00 +21°C° 0.2 mm 0 m/S 699 mmHg 92%
    21:00 +21°C° 0.2 mm 0 m/S 699 mmHg 93%
    22:00 +21°C° 0.2 mm 0 m/S 699 mmHg 94%
    23:00 +20°C° 0.3 mm 0 m/S 699 mmHg 95%

    27 September, Donnerstag

    Zeit Temperatur Niederschläge Wind Luftdruck Luftfeuchtigkeit
    00:00 +20°C° 0.3 mm 0 m/S 699 mmHg 96%
    01:00 +20°C° 0.3 mm 0 m/S 699 mmHg 97%
    02:00 +20°C° 0.2 mm 0 m/S 699 mmHg 98%
    03:00 +19°C° 0.2 mm 0 m/S 699 mmHg 98%
    04:00 +19°C° 0.2 mm 0 m/S 699 mmHg 99%
    05:00 +20°C° 0.1 mm 0 m/S 699 mmHg 98%
    06:00 +20°C° 0.1 mm 0 m/S 700 mmHg 98%
    07:00 +20°C° 0.1 mm 0 m/S 700 mmHg 97%
    08:00 +22°C° 0.1 mm 0 m/S 701 mmHg 87%
    09:00 +27°C° 0.1 mm 1 m/S 701 mmHg 77%
    10:00 +29°C° 0.1 mm 1 m/S 701 mmHg 67%
    11:00 +31°C° 0 mm 1 m/S 701 mmHg 60%
    12:00 +31°C° 0 mm 0 m/S 700 mmHg 53%
    13:00 +33°C° 0 mm 0 m/S 699 mmHg 46%
    14:00 +32°C° 0.1 mm 0 m/S 699 mmHg 50%
    15:00 +30°C° 0.1 mm 0 m/S 698 mmHg 55%
    16:00 +29°C° 0.1 mm 0 m/S 698 mmHg 59%
    17:00 +27°C° 0.5 mm 0 m/S 698 mmHg 67%
    18:00 +25°C° 0.5 mm 0 m/S 699 mmHg 76%
    19:00 +23°C° 0.5 mm 0 m/S 699 mmHg 84%
    20:00 +24°C° 1.9 mm 1 m/S 699 mmHg 88%
    21:00 +24°C° 1.9 mm 1 m/S 700 mmHg 93%
    22:00 +23°C° 1.9 mm 1 m/S 700 mmHg 97%
    23:00 +23°C° 0.7 mm 1 m/S 700 mmHg 98%
    Mehr zeigen